Weather History for Rio De Janeiro Aeroporto, Brazil

Change the Weather History Date:

Sunday, September 29, 2013

  Actual Average Record
Temperature  
Mean Temperature 70 °F -  
Max Temperature 73 °F 78 °F - ()
Min Temperature 66 °F 68 °F - ()
Cooling Degree Days 4    
Growing Degree Days 20 (Base 50)    
Moisture  
Dew Point 65 °F    
Average Humidity 83    
Maximum Humidity 94    
Minimum Humidity 78    
Precipitation  
Precipitation 0.00 in - - ()
Sea Level Pressure  
Sea Level Pressure 30.00 in    
Wind  
Wind Speed 4 mph ()    
Max Wind Speed 13 mph    
Max Gust Speed -    
Visibility 5.6 miles    
Events Rain    
T = Trace of Precipitation, MM = Missing Value Source: Averaged Metar Reports

Daily Weather History Graph

Daily Weather History Graph

Search for Another Location

Airport:

Trip Planner

Search our weather history database for the weather conditions in past years. The results will help you decide how hot, cold, wet, or windy it might be!

Date:

Astronomy

Sep. 29, 2013 Rise Set
Actual Time 5:35 AM BRT 5:51 PM BRT
Civil Twilight 5:12 AM BRT 6:13 PM BRT
Nautical Twilight 4:46 AM BRT 6:39 PM BRT
Astronomical Twilight 4:19 AM BRT 7:06 PM BRT
Moon 1:45 AM BRT (9/29) 1:13 PM BRT (9/29)
Length of Visible Light 13h 00m
Length of Day
12h 15m
Waning Crescent, 27% of the Moon is Illuminated
Sep 29
Waning Crescent
Oct 4
New
Oct 11
First Quarter
Oct 18
Full
Oct 26
Last Quarter

Hourly Weather History & Observations

Time (BRT) Temp. Dew Point Humidity Pressure Visibility Wind Dir Wind Speed Gust Speed Precip Events Conditions
5:15 AM 66.2 °F 62.6 °F 88% 29.98 in 5.0 mi NW 4.6 mph - N/A Rain Light Rain
6:00 AM 68.0 °F 62.6 °F 83% 30.01 in 5.0 mi Calm Calm - N/A   Mostly Cloudy
7:00 AM 68.0 °F 64.4 °F 88% 30.06 in 5.0 mi Calm Calm - N/A   Mostly Cloudy
8:00 AM 68.0 °F 64.4 °F 88% 30.06 in 5.0 mi NNW 4.6 mph - N/A   Mostly Cloudy
9:00 AM 68.0 °F 66.2 °F 94% 30.06 in 4.3 mi NE 10.4 mph - N/A Rain Light Rain
10:00 AM 68.0 °F 66.2 °F 94% 30.01 in 4.3 mi NNE 12.7 mph - N/A   Mostly Cloudy
11:00 AM 68.0 °F 64.4 °F 88% 30.01 in 4.3 mi Calm Calm - N/A   Mostly Cloudy
12:00 PM 71.6 °F 64.4 °F 78% 29.98 in 6.2 mi SE 4.6 mph - N/A   Overcast
1:00 PM 71.6 °F 64.4 °F 78% 29.95 in 6.2 mi SSW 1.2 mph - N/A   Overcast
2:00 PM 73.4 °F 66.2 °F 78% 29.95 in 6.2 mi ENE 3.5 mph - N/A   Mostly Cloudy
3:00 PM 73.4 °F 66.2 °F 78% 29.95 in 6.2 mi SE 5.8 mph - N/A   Overcast
4:00 PM 73.4 °F 66.2 °F 78% 29.98 in 6.2 mi South 8.1 mph - N/A   Overcast
5:00 PM 71.6 °F 66.2 °F 83% 29.98 in 6.2 mi South 6.9 mph - N/A   Overcast
6:00 PM 71.6 °F 66.2 °F 83% 30.01 in 6.2 mi South 6.9 mph - N/A   Overcast
7:00 PM 71.6 °F 66.2 °F 83% 30.01 in 6.2 mi South 3.5 mph - N/A   Overcast
8:00 PM 73.4 °F 66.2 °F 78% 30.01 in 6.2 mi Calm Calm - N/A   Overcast
9:00 PM 73.4 °F 66.2 °F 78% 30.04 in 6.2 mi East 4.6 mph - N/A   Overcast
10:00 PM 71.6 °F 66.2 °F 83% 30.01 in 6.2 mi East 4.6 mph - N/A   Overcast
11:00 PM 71.6 °F 66.2 °F 83% 30.01 in 6.2 mi East 5.8 mph - N/A   Overcast